Ogallala, NE

9:12 PM MDT on September 24, 2016 (GMT -0600)
Searle

Weather History for KOGA - November, 2012

Change the Weather History Date:

Thursday, November 15, 2012

  Actual Average Record
Temperature  
Mean Temperature 42 °F -  
Max Temperature 54 °F 49 °F 75 °F (1990)
Min Temperature 29 °F 22 °F 1 °F (2014)
Degree Days  
Heating Degree Days 24    
Moisture  
Dew Point 26 °F    
Average Humidity 53    
Maximum Humidity 70    
Minimum Humidity 30    
Precipitation  
Precipitation 0.00 in - - ()
Sea Level Pressure  
Sea Level Pressure 30.32 in    
Wind  
Wind Speed 7 mph (North)    
Max Wind Speed 17 mph    
Max Gust Speed 18 mph    
Visibility 10 miles    
Events      
Averages and records for this station are not official NWS values.
T = Trace of Precipitation, MM = Missing Value Source: NWS Daily Summary

Daily Weather History Graph

Daily Weather History Graph

Search for Another Location

Airport or City:

Trip Planner

Search our weather history database for the weather conditions in past years. The results will help you decide how hot, cold, wet, or windy it might be!

Date:

Astronomy

Nov. 15, 2012 Rise Set
Actual Time 6:35 AM MST 4:27 PM MST
Civil Twilight 6:05 AM MST 4:57 PM MST
Nautical Twilight 5:32 AM MST 5:30 PM MST
Astronomical Twilight 4:59 AM MST 6:03 PM MST
Moon 8:33 AM MST (11/15) 6:20 PM MST (11/15)
Length of Visible Light 10h 51m
Length of Day
9h 52m
Waxing Crescent, 5% of the Moon is Illuminated
Nov 15
Waxing Crescent
Nov 20
First Quarter
Nov 28
Full
Dec 6
Last Quarter
Dec 13
New

Hourly Weather History & Observations

Time (MST) Temp. Windchill Dew Point Humidity Pressure Visibility Wind Dir Wind Speed Gust Speed Precip Events Conditions
12:15 AM 44.8 °F 41.6 °F 31.6 °F 60% 30.15 in 10.0 mi West 5.8 mph - N/A   Overcast
12:35 AM 46.6 °F - 32.0 °F 57% 30.15 in 10.0 mi NNW 16.1 mph - N/A   Mostly Cloudy
12:55 AM 45.9 °F 40.0 °F 31.6 °F 58% 30.16 in 10.0 mi NW 12.7 mph - N/A   Scattered Clouds
1:15 AM 45.1 °F 39.5 °F 31.5 °F 59% 30.16 in 10.0 mi NW 11.5 mph - N/A   Clear
1:35 AM 45.0 °F 38.9 °F 31.3 °F 59% 30.17 in 10.0 mi NW 12.7 mph - N/A   Mostly Cloudy
1:55 AM 44.8 °F 38.7 °F 30.9 °F 58% 30.18 in 10.0 mi NW 12.7 mph - N/A   Mostly Cloudy
2:15 AM 44.6 °F 38.4 °F 30.2 °F 57% 30.19 in 10.0 mi NNW 12.7 mph - N/A   Mostly Cloudy
2:35 AM 44.4 °F 37.9 °F 30.0 °F 57% 30.19 in 10.0 mi NNW 13.8 mph - N/A   Mostly Cloudy
2:55 AM 44.4 °F 38.2 °F 30.2 °F 57% 30.20 in 10.0 mi NW 12.7 mph - N/A   Overcast
3:15 AM 43.3 °F 37.2 °F 30.2 °F 60% 30.19 in 10.0 mi NNW 11.5 mph - N/A   Overcast
3:35 AM 42.8 °F 37.0 °F 30.2 °F 61% 30.20 in 10.0 mi NNW 10.4 mph - N/A   Overcast
3:55 AM 42.3 °F 39.4 °F 30.2 °F 62% 30.22 in 10.0 mi NW 4.6 mph - N/A   Overcast
4:15 AM 41.0 °F - 30.2 °F 65% 30.23 in 10.0 mi Calm Calm - N/A   Mostly Cloudy
4:35 AM 40.3 °F - 30.2 °F 67% 30.24 in 10.0 mi Calm Calm - N/A   Scattered Clouds
4:55 AM 40.1 °F 38.0 °F 30.0 °F 67% 30.26 in 10.0 mi NW 3.5 mph - N/A   Scattered Clouds
5:15 AM 40.8 °F 35.6 °F 30.2 °F 66% 30.26 in 10.0 mi North 8.1 mph - N/A   Overcast
5:35 AM 39.0 °F 35.7 °F 29.8 °F 70% 30.27 in 10.0 mi NW 4.6 mph - N/A   Scattered Clouds
5:55 AM 39.4 °F 36.1 °F 29.1 °F 67% 30.28 in 10.0 mi NNW 4.6 mph - N/A   Clear
6:15 AM 38.7 °F 31.8 °F 28.4 °F 67% 30.29 in 10.0 mi NNE 10.4 mph - N/A   Clear
6:35 AM 38.8 °F 30.8 °F 28.2 °F 66% 30.29 in 10.0 mi North 13.8 mph 18.4 mph N/A   Clear
6:55 AM 38.5 °F - 27.9 °F 66% 30.31 in 10.0 mi Calm Calm - N/A   Clear
7:15 AM 39.6 °F - 28.2 °F 64% 30.32 in 10.0 mi Calm Calm - N/A   Scattered Clouds
7:35 AM 41.2 °F 37.3 °F 28.2 °F 60% 30.33 in 10.0 mi North 5.8 mph - N/A   Clear
7:55 AM 41.5 °F 35.4 °F 28.0 °F 59% 30.33 in 10.0 mi North 10.4 mph 16.1 mph N/A   Clear
8:15 AM 43.2 °F 36.6 °F 28.0 °F 55% 30.34 in 10.0 mi NNE 12.7 mph - N/A   Scattered Clouds
8:35 AM 43.7 °F 36.0 °F 27.9 °F 54% 30.35 in 10.0 mi North 17.3 mph - N/A   Scattered Clouds
8:55 AM 43.0 °F 36.8 °F 28.2 °F 56% 30.36 in 10.0 mi North 11.5 mph - N/A   Scattered Clouds
9:15 AM 45.3 °F 39.3 °F 29.1 °F 53% 30.37 in 10.0 mi NNE 12.7 mph 16.1 mph N/A   Clear
9:35 AM 48.0 °F - 28.8 °F 47% 30.38 in 10.0 mi North 10.4 mph 16.1 mph N/A   Clear
9:55 AM 48.9 °F - 27.0 °F 43% 30.38 in 10.0 mi NNE 10.4 mph 16.1 mph N/A   Clear
10:15 AM 50.5 °F - 26.4 °F 39% 30.38 in 10.0 mi NNE 10.4 mph - N/A   Clear
10:35 AM 51.3 °F - 25.5 °F 37% 30.38 in 10.0 mi NE 15.0 mph 18.4 mph N/A   Clear
10:55 AM 51.4 °F - 26.1 °F 37% 30.38 in 10.0 mi NNE 13.8 mph - N/A   Clear
11:15 AM 51.6 °F - 26.1 °F 37% 30.38 in 10.0 mi North 11.5 mph - N/A   Clear
11:35 AM 52.2 °F - 25.2 °F 35% 30.37 in 10.0 mi NNE 8.1 mph - N/A   Clear
11:55 AM 53.2 °F - 24.8 °F 33% 30.36 in 10.0 mi ENE 8.1 mph - N/A   Clear
12:15 PM 53.2 °F - 24.6 °F 33% 30.35 in 10.0 mi North 6.9 mph - N/A   Clear
12:35 PM 53.4 °F - 24.4 °F 33% 30.35 in 10.0 mi NE 8.1 mph - N/A   Clear
12:55 PM 53.6 °F - 23.9 °F 32% 30.34 in 10.0 mi Calm Calm - N/A   Clear
1:15 PM 54.0 °F - 23.2 °F 30% 30.34 in 10.0 mi Calm Calm - N/A   Clear
1:35 PM 54.1 °F - 23.5 °F 31% 30.34 in 10.0 mi North 4.6 mph - N/A   Clear
1:55 PM 54.5 °F - 23.4 °F 30% 30.34 in 10.0 mi North 4.6 mph - N/A   Clear
2:15 PM 54.5 °F - 23.5 °F 30% 30.34 in 10.0 mi Calm Calm - N/A   Clear
2:35 PM 53.8 °F - 23.2 °F 30% 30.34 in 10.0 mi Calm Calm - N/A   Clear
2:55 PM 53.8 °F - 23.0 °F 30% 30.34 in 10.0 mi Calm Calm - N/A   Clear
3:15 PM 54.0 °F - 23.0 °F 30% 30.34 in 10.0 mi SE 3.5 mph - N/A   Clear
3:35 PM 53.2 °F - 22.8 °F 31% 30.34 in 10.0 mi SE 3.5 mph - N/A   Clear
3:55 PM 52.3 °F - 23.2 °F 32% 30.35 in 10.0 mi ESE 3.5 mph - N/A   Clear
4:15 PM 50.9 °F - 23.2 °F 34% 30.35 in 10.0 mi Calm Calm - N/A   Clear
4:35 PM 47.1 °F - 22.8 °F 38% 30.35 in 7.0 mi Calm Calm - N/A   Clear
4:55 PM 41.9 °F - 21.0 °F 43% 30.35 in 10.0 mi Calm Calm - N/A   Clear
5:15 PM 38.7 °F - 21.2 °F 50% 30.35 in 10.0 mi Calm Calm - N/A   Clear
5:35 PM 37.9 °F - 21.2 °F 51% 30.37 in 10.0 mi Calm Calm - N/A   Clear
5:55 PM 33.1 °F - 20.3 °F 59% 30.37 in 10.0 mi Calm Calm - N/A   Clear
6:15 PM 32.0 °F - 19.4 °F 60% 30.38 in 10.0 mi Calm Calm - N/A   Clear
6:35 PM 32.5 °F - 20.7 °F 62% 30.38 in 10.0 mi Calm Calm - N/A   Clear
6:55 PM 31.1 °F - 20.1 °F 64% 30.38 in 10.0 mi Calm Calm - N/A   Clear
7:15 PM 32.2 °F - 21.4 °F 64% 30.38 in 10.0 mi Calm Calm - N/A   Clear
7:35 PM 33.8 °F - 22.3 °F 63% 30.38 in 10.0 mi Calm Calm - N/A   Clear
7:55 PM 30.7 °F - 21.2 °F 68% 30.38 in 10.0 mi Calm Calm - N/A   Clear
8:15 PM 31.6 °F - 21.4 °F 66% 30.39 in 10.0 mi Calm Calm - N/A   Clear
8:35 PM 31.8 °F - 21.9 °F 67% 30.39 in 10.0 mi Calm Calm - N/A   Clear
8:55 PM 29.5 °F 25.9 °F 20.8 °F 70% 30.39 in 10.0 mi ENE 3.5 mph - N/A   Clear
9:15 PM 30.6 °F - 20.8 °F 67% 30.39 in 10.0 mi Calm Calm - N/A   Clear
9:35 PM 29.7 °F - 21.0 °F 70% 30.39 in 10.0 mi Calm Calm - N/A   Clear
9:55 PM 29.8 °F 26.3 °F 21.0 °F 70% 30.39 in 10.0 mi NE 3.5 mph - N/A   Clear
10:15 PM 31.5 °F - 21.6 °F 67% 30.39 in 10.0 mi Calm Calm - N/A   Clear
10:35 PM 31.6 °F 28.3 °F 21.4 °F 66% 30.38 in 10.0 mi ENE 3.5 mph - N/A   Clear
10:55 PM 32.0 °F - 21.6 °F 65% 30.38 in 10.0 mi Calm Calm - N/A   Clear
11:15 PM 35.4 °F 29.7 °F 23.0 °F 61% 30.38 in 10.0 mi ESE 6.9 mph - N/A   Clear
11:35 PM 34.9 °F 29.0 °F 23.0 °F 62% 30.38 in 10.0 mi SE 6.9 mph - N/A   Clear
11:55 PM 33.4 °F - 22.8 °F 65% 30.36 in 10.0 mi Calm Calm - N/A   Clear